This demonstration page uses our WeatherBlox Daily Observations layout. Learn more.

Left ArrowRight Arrow

39.29038, -76.61219

Hourly Observations for July 1, 2021

Temp ( °F °C ) Dew Point ( °F °C ) Humidity (%) Winds ( mph kmh ) Pressure ( in mb ) Visibility ( mi km ) Precip ( " mm )
12:54 am 00:54 Partly Cloudy 73 22.8 69 20.6 87 87 WNW 5 7 29.96 1014 10 16 N/A
1:54 am 01:54 Partly Cloudy 74 23.3 69 20.6 85 85 W 5 7 29.95 1014 10 16 N/A
2:54 am 02:54 Partly Cloudy 75 23.9 68 20 79 79 N N/A 29.94 1014 10 16 N/A
3:54 am 03:54 Mostly Cloudy 74 23.3 68 20 82 82 W 3 6 29.92 1013 10 16 N/A
4:54 am 04:54 Mostly Cloudy 74 23.3 68 20 82 82 N N/A 29.91 1013 10 16 N/A
5:54 am 05:54 Mostly Cloudy 74 23.3 69 20.6 85 85 N N/A 29.91 1013 10 16 N/A
6:54 am 06:54 Mostly Cloudy 75 23.9 69 20.6 82 82 W 3 6 29.91 1013 10 16 N/A
7:54 am 07:54 Mostly Cloudy 78 25.6 70 21.1 76 76 N N/A 29.91 1013 10 16 N/A
8:54 am 08:54 Mostly Cloudy 82 27.8 69 20.6 65 65 W 3 6 29.91 1013 10 16 N/A
9:54 am 09:54 Mostly Cloudy 81 27.2 71 21.7 72 72 NNW 5 7 29.91 1013 10 16 0.02 0.51
10:54 am 10:54 Mostly Cloudy 80 26.7 70 21.1 71 71 NNE 6 9 29.91 1013 10 16 N/A
11:54 am 11:54 Mostly Cloudy 81 27.2 71 21.7 72 72 ENE 7 11 29.89 1012 10 16 N/A
12:54 pm 12:54 Mostly Cloudy 85 29.4 72 22.2 65 65 SE 5 7 29.87 1012 10 16 N/A
1:54 pm 13:54 Mostly Cloudy 85 29.4 72 22.2 65 65 E 9 15 29.83 1010 10 16 N/A
2:12 pm 14:12 Mostly Cloudy with Thunderstorms 84 28.9 71 21.7 65 65 E 7 11 29.81 1009 10 16 N/A
2:29 pm 14:29 Cloudy with Strong Thunderstorms 81 27.2 73 22.8 77 77 N N/A 29.83 1010 2 3 0.07 1.78
2:34 pm 14:34 Cloudy with Strong Thunderstorms 79 26.1 73 22.8 82 82 N N/A 29.84 1011 1 1 0.15 3.81
2:43 pm 14:43 Cloudy with Strong Thunderstorms 76 24.4 72 22.2 88 88 N N/A 29.80 1009 0 0 0.77 19.56
2:52 pm 14:52 Mostly Cloudy with Thunderstorms 77 25 72 22 83 83 ESE 9 15 29.81 1010 5 8 0.88 22.35
2:54 pm 14:54 Mostly Cloudy with Haze 78 25.6 72 22.2 82 82 SSE 12 19 29.81 1010 5 8 0.88 22.35
3:23 pm 15:23 Mostly Cloudy with Thunderstorms 78 25.6 72 22.2 82 82 NNW 8 13 29.83 1010 6 10 N/A
3:46 pm 15:46 Mostly Cloudy with Thunderstorms 76 24.4 70 21.1 82 82 WNW 10 17 29.85 1011 3 5 0.02 0.51
3:54 pm 15:54 Mostly Cloudy with Thunderstorms 75 23.9 70 21.1 84 84 WNW 9 15 29.85 1011 3 5 0.05 1.27
4:16 pm 16:16 Mostly Cloudy with Light Rain 74 23.3 70 21.1 88 88 W 3 6 29.83 1010 7 11 0.03 0.76
4:54 pm 16:54 Cloudy with Light Rain 75 23.9 71 21.7 88 88 W 5 7 29.78 1009 10 16 0.03 0.76
5:54 pm 17:54 Mostly Cloudy 78 25.6 73 22.8 85 85 SSW 5 7 29.79 1009 10 16 0.00 0.00
6:54 pm 18:54 Mostly Cloudy 77 25 73 22.8 88 88 SSW 5 7 29.82 1010 10 16 N/A
7:54 pm 19:54 Mostly Cloudy 76 24.4 72 22.2 88 88 E 3 6 29.79 1009 10 16 N/A
8:54 pm 20:54 Cloudy 75 23.9 72 22.2 90 90 S 3 6 29.79 1009 7 11 N/A
9:19 pm 21:19 Cloudy with Mist and Fog 75 23.9 72 22.2 90 90 N N/A 29.79 1009 6 10 N/A
9:35 pm 21:35 Cloudy with Mist and Fog 75 23.9 72 22.2 90 90 WNW 10 17 29.80 1009 6 10 N/A
9:42 pm 21:42 Cloudy with Light Rain 73 22.8 69 20.6 87 87 WNW 18 30 29.82 1010 2 3 0.09 2.29
9:46 pm 21:46 Cloudy with Heavy Rain 72 22.2 69 20.6 91 91 WNW 15 24 29.82 1010 2 2 0.17 4.32
9:54 pm 21:54 Cloudy with Heavy Rain 72 22.2 69 20.6 91 91 NW 10 17 29.81 1010 2 3 0.27 6.86
9:57 pm 21:57 Mostly Cloudy with Rain 72 22.2 69 20.6 91 91 NNW 8 13 29.80 1009 3 5 0.03 0.76
10:03 pm 22:03 Cloudy with Light Rain 72 22.2 69 20.6 91 91 NW 7 11 29.80 1009 6 10 0.04 1.02
10:17 pm 22:17 Cloudy with Light Rain 71 21.7 69 20.6 94 94 WSW 3 6 29.80 1009 4 6 0.08 2.03
10:54 pm 22:54 Cloudy with Light Rain 72 22.2 69 20.6 91 91 SW 6 9 29.81 1009 6 10 0.08 2.03
11:54 pm 23:54 Cloudy with Light Rain 72 22.2 69 20.6 91 91 SW 5 7 29.80 1009 7 11 0.01 0.25

Powered by AerisWeather